OK1VCF-5 Weather Reports


Display with metric or nautical units.
time (UTC)temp
F
wind
direction
speed
MPH
gust
MPH
rain 1hr
in
rain 24hr
in
rain mn
in
humidity
%
barometer
mb
20260502122607 80 0 0.0 0.0 0.00 0.00 0.00 21 1025.6
20260502121108 78 0 0.0 0.0 0.00 0.00 0.00 22 1025.6
20260502115800 78 0 0.0 0.0 0.00 0.00 0.00 22 1025.9
20260502115604 78 0 0.0 0.0 0.00 0.00 0.00 22 1025.9
20260502114105 80 0 0.0 0.0 0.00 0.00 0.00 25 1026.1
20260502112602 78 0 0.0 0.0 0.00 0.00 0.00 25 1026.4
20260502111104 78 0 0.0 0.0 0.00 0.00 0.00 26 1026.5
20260502105602 78 0 0.0 0.0 0.00 0.00 0.00 26 1026.7
20260502104103 78 0 0.0 0.0 0.00 0.00 0.00 26 1027.0
20260502102602 77 0 0.0 0.0 0.00 0.00 0.00 26 1027.1
20260502101105 76 0 0.0 0.0 0.00 0.00 0.00 26 1027.3
20260502091059 74 0 0.0 0.0 0.00 0.00 0.00 29 1028.0
20260502071051 60 0 0.0 0.0 0.00 0.00 0.00 53 1029.6
20260502065550 58 0 0.0 0.0 0.00 0.00 0.00 56 1029.8
20260502064050 55 0 0.0 0.0 0.00 0.00 0.00 61 1030.0
20260502062549 54 0 0.0 0.0 0.00 0.00 0.00 64 1030.1
20260502055550 48 0 0.0 0.0 0.00 0.00 0.00 72 1030.3
20260502051044 42 0 0.0 0.0 0.00 0.00 0.00 82 1030.6
20260502045542 40 0 0.0 0.0 0.00 0.00 0.00 86 1030.6
20260502044043 38 0 0.0 0.0 0.00 0.00 0.00 88 1030.6
20260502042542 38 0 0.0 0.0 0.00 0.00 0.00 89 1030.6
20260502041041 37 0 0.0 0.0 0.00 0.00 0.00 89 1030.4
20260502035541 37 0 0.0 0.0 0.00 0.00 0.00 90 1030.4
20260502034042 37 0 0.0 0.0 0.00 0.00 0.00 90 1030.4
20260502032542 37 0 0.0 0.0 0.00 0.00 0.00 90 1030.6
20260502031040 37 0 0.0 0.0 0.00 0.00 0.00 89 1030.6
20260502025540 37 0 0.0 0.0 0.00 0.00 0.00 89 1030.6
20260502022537 38 0 0.0 0.0 0.00 0.00 0.00 86 1030.6
20260502021036 38 0 0.0 0.0 0.00 0.00 0.00 88 1030.6
20260502015533 38 0 0.0 0.0 0.00 0.00 0.00 87 1030.6
20260502014032 39 0 0.0 0.0 0.00 0.00 0.00 86 1030.5
20260502012533 39 0 0.0 0.0 0.00 0.00 0.00 86 1030.6
20260502011033 39 0 0.0 0.0 0.00 0.00 0.00 86 1030.8
20260502005531 40 0 0.0 0.0 0.00 0.00 0.00 86 1030.9
20260502004030 40 0 0.0 0.0 0.00 0.00 0.00 86 1031.0
20260502002530 40 0 0.0 0.0 0.00 0.00 0.00 86 1031.0
20260502001027 40 0 0.0 0.0 0.00 0.00 0.00 84 1031.0
20260501235535 41 0 0.0 0.0 0.00 0.00 0.00 84 1031.1
20260501235527 41 0 0.0 0.0 0.00 0.00 0.00 84 1031.1
20260501232527 42 0 0.0 0.0 0.00 0.00 0.00 82 1031.0
20260501231026 42 0 0.0 0.0 0.00 0.00 0.00 81 1031.0
20260501225525 43 0 0.0 0.0 0.00 0.00 0.00 80 1031.0
20260501224024 44 0 0.0 0.0 0.00 0.00 0.00 80 1031.2
20260501222522 44 0 0.0 0.0 0.00 0.00 0.00 80 1031.0
20260501221023 44 0 0.0 0.0 0.00 0.00 0.00 80 1031.2
20260501215524 44 0 0.0 0.0 0.00 0.00 0.00 79 1031.1
20260501214023 44 0 0.0 0.0 0.00 0.00 0.00 78 1031.0
20260501212524 44 0 0.0 0.0 0.00 0.00 0.00 78 1031.0
20260501202520 48 0 0.0 0.0 0.00 0.00 0.00 72 1031.0
20260501201015 48 0 0.0 0.0 0.00 0.00 0.00 69 1030.8
20260501195515 50 0 0.0 0.0 0.00 0.00 0.00 67 1030.8
20260501192514 52 0 0.0 0.0 0.00 0.00 0.00 60 1030.6
20260501191013 53 0 0.0 0.0 0.00 0.00 0.00 57 1030.5
20260501184012 55 0 0.0 0.0 0.00 0.00 0.00 54 1030.2
20260501182512 56 0 0.0 0.0 0.00 0.00 0.00 50 1030.0
20260501181009 58 0 0.0 0.0 0.00 0.00 0.00 48 1029.8
20260501175514 60 0 0.0 0.0 0.00 0.00 0.00 46 1029.7
20260501174009 61 0 0.0 0.0 0.00 0.00 0.00 48 1029.6
20260501171007 65 0 0.0 0.0 0.00 0.00 0.00 40 1029.5
20260501162506 68 0 0.0 0.0 0.00 0.00 0.00 32 1029.6
20260501161003 69 0 0.0 0.0 0.00 0.00 0.00 32 1029.7
20260501155503 69 0 0.0 0.0 0.00 0.00 0.00 29 1029.8
20260501154003 70 0 0.0 0.0 0.00 0.00 0.00 31 1029.8
20260501152503 70 0 0.0 0.0 0.00 0.00 0.00 32 1030.0
20260501151002 70 0 0.0 0.0 0.00 0.00 0.00 30 1030.2